Time,TemperatureF,DewpointF,PressureIn,WindDirection,WindDirectionDegrees,WindSpeedMPH,WindSpeedGustMPH,Humidity,HourlyPrecipIn,Conditions,Clouds,dailyrainin,SoftwareType,DateUTC
2013-02-24 00:02:00,59.7,55.0,29.89,East,91,1.0,5.0,84,0.00,,,0.00,weatherlink.com 1.10,2013-02-24 06:02:00,
2013-02-24 00:17:00,59.7,55.0,29.89,East,80,2.0,5.0,84,0.00,,,0.00,weatherlink.com 1.10,2013-02-24 06:17:00,
2013-02-24 00:32:00,59.6,54.0,29.88,East,84,4.0,5.0,83,0.00,,,0.00,weatherlink.com 1.10,2013-02-24 06:32:00,
2013-02-24 00:47:00,59.7,55.0,29.87,ENE,73,5.0,6.0,84,0.00,,,0.00,weatherlink.com 1.10,2013-02-24 06:47:00,
2013-02-24 01:02:00,59.9,55.0,29.87,ENE,71,3.0,7.0,85,0.00,,,0.00,weatherlink.com 1.10,2013-02-24 07:02:00,
2013-02-24 01:17:00,59.6,55.0,29.87,NE,52,4.0,6.0,85,0.00,,,0.00,weatherlink.com 1.10,2013-02-24 07:17:00,
2013-02-24 01:32:00,59.4,55.0,29.87,NE,51,1.0,2.0,85,0.00,,,0.00,weatherlink.com 1.10,2013-02-24 07:32:00,
2013-02-24 01:47:00,59.3,55.0,29.87,ENE,71,2.0,3.0,86,0.00,,,0.00,weatherlink.com 1.10,2013-02-24 07:47:00,
2013-02-24 02:02:00,59.3,55.0,29.86,East,79,2.0,3.0,86,0.00,,,0.00,weatherlink.com 1.10,2013-02-24 08:02:00,
2013-02-24 02:19:00,59.3,56.0,29.86,ENE,60,1.0,5.0,87,0.00,,,0.00,weatherlink.com 1.10,2013-02-24 08:19:00,
2013-02-24 02:32:00,59.3,56.0,29.86,ENE,62,3.0,4.0,87,0.00,,,0.00,weatherlink.com 1.10,2013-02-24 08:32:00,
2013-02-24 02:47:00,59.3,56.0,29.85,ENE,62,2.0,3.0,88,0.00,,,0.00,weatherlink.com 1.10,2013-02-24 08:47:00,
2013-02-24 03:02:00,59.3,56.0,29.84,ENE,60,3.0,4.0,88,0.00,,,0.00,weatherlink.com 1.10,2013-02-24 09:02:00,
2013-02-24 03:17:00,59.5,56.0,29.84,ENE,70,0.0,2.0,89,0.00,,,0.00,weatherlink.com 1.10,2013-02-24 09:17:00,
2013-02-24 03:32:00,59.5,57.0,29.84,ENE,70,2.0,2.0,90,0.00,,,0.00,weatherlink.com 1.10,2013-02-24 09:32:00,
2013-02-24 03:47:00,59.1,56.0,29.84,NE,47,0.0,4.0,89,0.00,,,0.00,weatherlink.com 1.10,2013-02-24 09:47:00,
2013-02-24 04:02:00,58.8,56.0,29.83,NE,47,0.0,0.0,90,0.00,,,0.00,weatherlink.com 1.10,2013-02-24 10:02:00,
2013-02-24 04:17:00,58.1,55.0,29.82,NE,47,0.0,0.0,90,0.00,,,0.00,weatherlink.com 1.10,2013-02-24 10:17:00,
2013-02-24 04:32:00,58.3,56.0,29.82,NE,47,0.0,0.0,91,0.00,,,0.00,weatherlink.com 1.10,2013-02-24 10:32:00,
2013-02-24 04:47:00,58.6,56.0,29.82,NE,47,0.0,0.0,92,0.00,,,0.00,weatherlink.com 1.10,2013-02-24 10:47:00,
2013-02-24 05:02:00,58.3,56.0,29.82,NE,47,0.0,0.0,91,0.00,,,0.00,weatherlink.com 1.10,2013-02-24 11:02:00,
2013-02-24 05:17:00,58.4,56.0,29.82,NE,47,0.0,1.0,92,0.00,,,0.00,weatherlink.com 1.10,2013-02-24 11:17:00,
2013-02-24 05:32:00,58.9,57.0,29.82,NE,47,1.0,2.0,93,0.00,,,0.00,weatherlink.com 1.10,2013-02-24 11:32:00,
2013-02-24 05:47:00,58.7,57.0,29.82,NE,47,0.0,0.0,93,0.00,,,0.00,weatherlink.com 1.10,2013-02-24 11:47:00,
2013-02-24 06:02:00,59.6,58.0,29.82,NE,47,0.0,1.0,93,0.00,,,0.00,weatherlink.com 1.10,2013-02-24 12:02:00,
2013-02-24 06:17:00,58.5,56.0,29.82,NE,47,1.0,2.0,92,0.00,,,0.00,weatherlink.com 1.10,2013-02-24 12:17:00,
2013-02-24 06:32:00,58.7,57.0,29.82,NE,47,1.0,2.0,94,0.00,,,0.00,weatherlink.com 1.10,2013-02-24 12:32:00,
2013-02-24 06:47:00,59.5,58.0,29.82,NE,48,0.0,2.0,94,0.00,,,0.00,weatherlink.com 1.10,2013-02-24 12:47:00,
2013-02-24 07:02:00,59.7,58.0,29.82,NE,48,2.0,2.0,94,0.00,,,0.00,weatherlink.com 1.10,2013-02-24 13:02:00,
2013-02-24 07:17:00,60.5,59.0,29.82,ENE,65,4.0,5.0,94,0.00,,,0.00,weatherlink.com 1.10,2013-02-24 13:17:00,
2013-02-24 07:32:00,61.3,60.0,29.82,ENE,77,3.0,5.0,94,0.00,,,0.00,weatherlink.com 1.10,2013-02-24 13:32:00,
2013-02-24 07:47:00,61.9,60.0,29.82,ENE,71,5.0,6.0,94,0.00,,,0.00,weatherlink.com 1.10,2013-02-24 13:47:00,
2013-02-24 08:02:00,62.3,61.0,29.83,ENE,68,5.0,6.0,94,0.00,,,0.00,weatherlink.com 1.10,2013-02-24 14:02:00,
2013-02-24 08:17:00,62.8,61.0,29.83,ENE,66,2.0,6.0,93,0.00,,,0.00,weatherlink.com 1.10,2013-02-24 14:17:00,
2013-02-24 08:32:00,63.3,61.0,29.82,ENE,77,5.0,8.0,92,0.00,,,0.00,weatherlink.com 1.10,2013-02-24 14:32:00,
2013-02-24 08:47:00,63.7,61.0,29.82,East,85,7.0,9.0,92,0.00,,,0.00,weatherlink.com 1.10,2013-02-24 14:47:00,
2013-02-24 09:02:00,64.3,62.0,29.82,ENE,67,4.0,10.0,91,0.00,,,0.00,weatherlink.com 1.10,2013-02-24 15:02:00,
2013-02-24 09:17:00,64.6,61.0,29.81,ENE,75,8.0,11.0,89,0.00,,,0.00,weatherlink.com 1.10,2013-02-24 15:17:00,
2013-02-24 09:32:00,64.9,61.0,29.82,ENE,65,6.0,12.0,88,0.00,,,0.00,weatherlink.com 1.10,2013-02-24 15:32:00,
2013-02-24 09:47:00,65.0,61.0,29.82,ENE,78,5.0,11.0,88,0.00,,,0.00,weatherlink.com 1.10,2013-02-24 15:47:00,
2013-02-24 10:02:00,65.3,61.0,29.82,ENE,67,7.0,11.0,87,0.00,,,0.00,weatherlink.com 1.10,2013-02-24 16:02:00,
2013-02-24 10:18:00,65.2,61.0,29.83,ENE,70,8.0,11.0,87,0.00,,,0.00,weatherlink.com 1.10,2013-02-24 16:18:00,
2013-02-24 10:33:00,65.0,61.0,29.82,East,88,6.0,11.0,88,0.00,,,0.00,weatherlink.com 1.10,2013-02-24 16:33:00,
2013-02-24 10:48:00,65.0,61.0,29.82,ENE,69,4.0,11.0,88,0.00,,,0.00,weatherlink.com 1.10,2013-02-24 16:48:00,
2013-02-24 11:03:00,65.2,62.0,29.82,East,81,6.0,10.0,88,0.00,,,0.00,weatherlink.com 1.10,2013-02-24 17:03:00,
2013-02-24 11:18:00,65.5,62.0,29.82,East,95,7.0,11.0,88,0.00,,,0.00,weatherlink.com 1.10,2013-02-24 17:18:00,
2013-02-24 11:33:00,65.8,62.0,29.82,ENE,78,6.0,10.0,87,0.00,,,0.00,weatherlink.com 1.10,2013-02-24 17:33:00,
2013-02-24 11:48:00,65.7,62.0,29.81,East,81,6.0,8.0,88,0.00,,,0.00,weatherlink.com 1.10,2013-02-24 17:48:00,
2013-02-24 12:03:00,65.8,62.0,29.80,ENE,59,5.0,10.0,88,0.00,,,0.00,weatherlink.com 1.10,2013-02-24 18:03:00,
2013-02-24 12:18:00,65.7,62.0,29.79,ENE,71,4.0,9.0,88,0.00,,,0.00,weatherlink.com 1.10,2013-02-24 18:18:00,
2013-02-24 12:33:00,65.5,62.0,29.78,East,89,5.0,8.0,88,0.00,,,0.00,weatherlink.com 1.10,2013-02-24 18:33:00,
2013-02-24 12:48:00,65.3,62.0,29.77,ENE,73,7.0,8.0,90,0.00,,,0.00,weatherlink.com 1.10,2013-02-24 18:48:00,
2013-02-24 13:03:00,65.1,63.0,29.76,ENE,67,4.0,8.0,91,0.00,,,0.00,weatherlink.com 1.10,2013-02-24 19:03:00,
2013-02-24 13:18:00,65.1,63.0,29.75,NE,44,5.0,8.0,91,0.00,,,0.00,weatherlink.com 1.10,2013-02-24 19:18:00,
2013-02-24 13:33:00,65.2,63.0,29.73,East,81,8.0,9.0,91,0.00,,,0.00,weatherlink.com 1.10,2013-02-24 19:33:00,
2013-02-24 13:48:00,65.4,63.0,29.72,East,92,6.0,10.0,91,0.00,,,0.00,weatherlink.com 1.10,2013-02-24 19:48:00,
2013-02-24 14:03:00,65.5,63.0,29.71,ENE,63,6.0,9.0,91,0.00,,,0.00,weatherlink.com 1.10,2013-02-24 20:03:00,
2013-02-24 14:18:00,66.0,63.0,29.71,East,79,10.0,11.0,91,0.00,,,0.00,weatherlink.com 1.10,2013-02-24 20:18:00,
2013-02-24 14:33:00,66.5,64.0,29.70,ENE,64,6.0,12.0,90,0.00,,,0.00,weatherlink.com 1.10,2013-02-24 20:33:00,
2013-02-24 14:48:00,66.6,64.0,29.69,ENE,77,8.0,10.0,90,0.00,,,0.00,weatherlink.com 1.10,2013-02-24 20:48:00,
2013-02-24 15:03:00,67.0,64.0,29.68,East,80,7.0,12.0,89,0.00,,,0.00,weatherlink.com 1.10,2013-02-24 21:03:00,
2013-02-24 15:18:00,67.3,64.0,29.67,East,84,5.0,12.0,89,0.00,,,0.00,weatherlink.com 1.10,2013-02-24 21:18:00,
2013-02-24 15:33:00,67.4,64.0,29.67,ENE,77,9.0,13.0,88,0.00,,,0.00,weatherlink.com 1.10,2013-02-24 21:33:00,
2013-02-24 15:48:00,67.5,64.0,29.66,ENE,67,10.0,12.0,88,0.00,,,0.00,weatherlink.com 1.10,2013-02-24 21:48:00,
2013-02-24 16:03:00,67.1,64.0,29.65,ENE,66,6.0,11.0,88,0.00,,,0.00,weatherlink.com 1.10,2013-02-24 22:03:00,
2013-02-24 16:18:00,66.9,64.0,29.66,ENE,64,12.0,12.0,89,0.00,,,0.00,weatherlink.com 1.10,2013-02-24 22:18:00,
2013-02-24 16:33:00,66.8,64.0,29.66,ENE,71,9.0,11.0,89,0.00,,,0.00,weatherlink.com 1.10,2013-02-24 22:33:00,
2013-02-24 16:48:00,66.5,64.0,29.66,ENE,62,5.0,10.0,90,0.00,,,0.00,weatherlink.com 1.10,2013-02-24 22:48:00,
2013-02-24 17:03:00,66.3,63.0,29.66,ENE,58,5.0,10.0,90,0.00,,,0.00,weatherlink.com 1.10,2013-02-24 23:03:00,
2013-02-24 17:18:00,66.3,64.0,29.66,ENE,67,7.0,9.0,91,0.00,,,0.00,weatherlink.com 1.10,2013-02-24 23:18:00,
2013-02-24 17:33:00,66.1,64.0,29.66,ENE,71,5.0,10.0,91,0.00,,,0.00,weatherlink.com 1.10,2013-02-24 23:33:00,
2013-02-24 17:48:00,65.8,64.0,29.65,ENE,71,8.0,11.0,92,0.00,,,0.00,weatherlink.com 1.10,2013-02-24 23:48:00,
2013-02-24 18:03:00,66.0,64.0,29.64,East,86,1.0,13.0,92,0.00,,,0.00,weatherlink.com 1.10,2013-02-25 00:03:00,
2013-02-24 18:18:00,65.9,64.0,29.64,East,92,7.0,16.0,92,0.00,,,0.00,weatherlink.com 1.10,2013-02-25 00:18:00,
2013-02-24 18:33:00,65.6,64.0,29.65,ESE,106,13.0,13.0,93,0.00,,,0.00,weatherlink.com 1.10,2013-02-25 00:33:00,
2013-02-24 18:48:00,66.1,64.0,29.66,ENE,69,6.0,13.0,93,0.00,,,0.00,weatherlink.com 1.10,2013-02-25 00:48:00,
2013-02-24 19:03:00,65.7,64.0,29.65,East,88,6.0,11.0,93,0.00,,,0.00,weatherlink.com 1.10,2013-02-25 01:03:00,
2013-02-24 19:18:00,65.5,64.0,29.66,East,91,7.0,12.0,94,0.00,,,0.00,weatherlink.com 1.10,2013-02-25 01:18:00,
2013-02-24 19:33:00,65.2,64.0,29.64,ENE,69,8.0,12.0,94,0.00,,,0.00,weatherlink.com 1.10,2013-02-25 01:33:00,
2013-02-24 19:48:00,64.9,63.0,29.64,East,96,6.0,11.0,94,0.00,,,0.00,weatherlink.com 1.10,2013-02-25 01:48:00,
2013-02-24 20:03:00,65.0,63.0,29.64,East,90,6.0,11.0,94,0.00,,,0.00,weatherlink.com 1.10,2013-02-25 02:03:00,
2013-02-24 20:18:00,65.2,64.0,29.64,ESE,106,9.0,13.0,95,0.00,,,0.00,weatherlink.com 1.10,2013-02-25 02:18:00,
2013-02-24 20:48:00,65.4,64.0,29.66,East,79,4.0,7.0,95,0.00,,,0.00,weatherlink.com 1.10,2013-02-25 02:48:00,
2013-02-24 21:03:00,65.2,64.0,29.65,ENE,64,9.0,9.0,95,0.00,,,0.00,weatherlink.com 1.10,2013-02-25 03:03:00,
2013-02-24 21:18:00,64.9,64.0,29.66,ENE,65,4.0,8.0,95,0.00,,,0.00,weatherlink.com 1.10,2013-02-25 03:18:00,
2013-02-24 21:33:00,64.4,63.0,29.64,ENE,68,4.0,7.0,95,0.00,,,0.00,weatherlink.com 1.10,2013-02-25 03:33:00,
2013-02-24 21:48:00,64.2,63.0,29.64,ENE,70,6.0,7.0,95,0.00,,,0.00,weatherlink.com 1.10,2013-02-25 03:48:00,
2013-02-24 22:03:00,63.9,63.0,29.64,ENE,75,4.0,6.0,95,0.00,,,0.00,weatherlink.com 1.10,2013-02-25 04:03:00,
2013-02-24 22:18:00,64.1,63.0,29.63,East,92,6.0,7.0,96,0.00,,,0.00,weatherlink.com 1.10,2013-02-25 04:18:00,
2013-02-24 22:34:00,64.8,64.0,29.62,East,99,6.0,9.0,96,0.00,,,0.00,weatherlink.com 1.10,2013-02-25 04:34:00,
2013-02-24 22:49:00,65.2,64.0,29.62,East,81,6.0,8.0,96,0.00,,,0.00,weatherlink.com 1.10,2013-02-25 04:49:00,
2013-02-24 23:04:00,65.8,65.0,29.62,East,100,5.0,8.0,96,0.00,,,0.00,weatherlink.com 1.10,2013-02-25 05:04:00,
2013-02-24 23:19:00,66.6,66.0,29.60,ESE,113,9.0,14.0,96,0.00,,,0.00,weatherlink.com 1.10,2013-02-25 05:19:00,
2013-02-24 23:34:00,66.5,65.0,29.60,ESE,119,6.0,12.0,96,0.00,,,0.00,weatherlink.com 1.10,2013-02-25 05:34:00,
2013-02-24 23:49:00,66.1,65.0,29.59,SE,127,5.0,9.0,96,0.00,,,0.00,weatherlink.com 1.10,2013-02-25 05:49:00,